Location: Unspecified
(40.7945°N, 0.0000°E)
Time: 06:58:18
(UTC+00:00)

Explorer 7 - Pass Details

Date: 25 January 2021
Orbit: 484 x 677 km, 50.3° (Epoch: 28 February)

Event Time Altitude Azimuth Distance (km) Brightness Sun altitude
Rises 09:33:50 0° 304° (NW) 2,704 9.8 19.9°
Reaches altitude 10° 09:36:01 10° 307° (NW) 1,841 9.0 20.2°
Maximum altitude 09:40:12 67° 31° (NNE) 631 7.3 20.7°
Drops below altitude 10° 09:44:40 10° 115° (ESE) 1,957 10.9 21.2°
Sets 09:47:03 0° 117° (ESE) 2,893 11.6 21.5°
